User: anonymous   Login
Location: Unspecified
(0.0000°N, 0.0000°E)
Time: 17:10:20
(UTC+00:00)
Language:

OBJECT G - Orbit

View from above orbital plane
View from above orbital plane
View from above satellite
View from above satellite

Ground track
Ground track

The orbit is defined by the following mean orbital elements,

1 57172U          26067.51855910 +.00000000 +00000-0 +51076-3 0 00002
2 57172  97.5175 126.6294 0014603 109.7259 250.5553 15.19577080    03
Epoch (UTC): 08 March 2026 12:26:43
Eccentricity: 0.0014603
inclination: 97.5175°
perigee height: 497 km
apogee height: 517 km
right ascension of ascending node: 126.6294°
argument of perigee: 109.7259°
revolutions per day: 15.19577080
mean anomaly at epoch: 250.5553°

The dashed part of the orbit path shows where the satellite is in the earth's shadow,  

DLR